This is the latest recevied weather packets stored in our database for station/object KM4KBD. If no packets are shown the sender has not sent any weather packets the latest 10 day(s).
| Time | Temp. | Humidity | Pressure | Rain* | Wind** | Luminosity | Snow |
|---|---|---|---|---|---|---|---|
| 1778085176 | 12.22° C | 91% | 1018.9 hPa | 0 mm | - | 261 W/m² | - |
| 1778084872 | 12.22° C | 92% | 1019 hPa | 0 mm | - | 226 W/m² | - |
| 1778084570 | 12.22° C | 91% | 1018.7 hPa | 0 mm | - | 292 W/m² | - |
| 1778084267 | 12.22° C | 91% | 1018.8 hPa | 0 mm | - | 196 W/m² | - |
| 1778083964 | 12.22° C | 92% | 1019 hPa | 0 mm | - | 203 W/m² | - |
| 1778083662 | 11.11° C | 94% | 1018.9 hPa | 0 mm | - | 274 W/m² | - |
| 1778083358 | 11.11° C | 95% | 1018.6 hPa | 0 mm | - | 210 W/m² | - |
| 1778083057 | 11.11° C | 95% | 1018.8 hPa | 0 mm | - | 213 W/m² | - |
| 1778082753 | 11.11° C | 96% | 1019.1 hPa | 0 mm | - | 196 W/m² | - |
| 1778081621 | 10.56° C | 98% | 1018.6 hPa | 0 mm | - | 189 W/m² | - |
| 1778081317 | 10.56° C | 98% | 1018.6 hPa | 0 mm | - | 135 W/m² | - |
| 1778081015 | 10.56° C | 98% | 1018.8 hPa | 0 mm | - | 170 W/m² | - |
| 1778080713 | 10.56° C | 98% | 1018.6 hPa | 0 mm | - | 148 W/m² | - |
| 1778080410 | 10.56° C | 98% | 1018.5 hPa | 0 mm | - | 156 W/m² | - |
| 1778080107 | 10° C | 99% | 1018.5 hPa | 0 mm | - | 149 W/m² | - |
| 1778079804 | 10° C | 98% | 1018.6 hPa | 0 mm | - | 150 W/m² | - |
| 1778079500 | 10° C | 99% | 1018.6 hPa | 0 mm | - | 116 W/m² | - |
| 1778079197 | 10° C | 99% | 1018.3 hPa | 0 mm | - | 110 W/m² | - |
| 1778078895 | 10° C | 99% | 1017.9 hPa | 0 mm | - | 91 W/m² | - |
| 1778078591 | 10° C | 99% | 1017.9 hPa | 0 mm | - | 91 W/m² | - |
| 1778078289 | 10° C | 99% | 1018 hPa | 0 mm | - | 77 W/m² | - |
| 1778077986 | 10° C | 99% | 1018 hPa | 0 mm | - | 67 W/m² | - |
| 1778077684 | 10° C | 99% | 1018 hPa | 0 mm | - | 69 W/m² | - |
| 1778077382 | 10° C | 99% | 1017.9 hPa | 0 mm | - | 74 W/m² | - |
| 1778077080 | 10° C | 99% | 1017.7 hPa | 0 mm | - | 73 W/m² | - |
* Rain latest hour (hover to see other rain measurements)
** Current wind speed in m/s (hover to see current wind gust speed)